Regional Weather Roundup
Issued by NWS

Home | Current Version | Previous Version | Text Only | Print | Product List | Glossary On
Versions: 1 2 3 4 5 6 7 8 9 10 11 12 13 14 15 16 17 18 19 20 21 22 23 24 25 26 27 28 29 30 31 32 33 34 35 36 37 38 39 40 41 42 43 44 45 46 47 48 49 50
000
ASUS43 KLOT 231409
RWRIL

ILLINOIS REGIONAL WEATHER ROUNDUP
NATIONAL WEATHER SERVICE CHICAGO/ROMEOVILLE IL
900 AM CDT FRI JUN 23 2017

NOTE: "FAIR" INDICATES FEW OR NO CLOUDS BELOW 12,000 FEET WITH NO
SIGNIFICANT WEATHER AND/OR OBSTRUCTIONS TO VISIBILITY.

* THESE STATIONS ARE NOT UNDER NWS QUALITY CONTROL. THEY ALSO MAY NOT
  REPORT WEATHER SUCH AS PRECIPITATION OR FOG.

ILZ001-002-007-009-015-016-024-231500-
NORTHWEST ILLINOIS

CITY           SKY/WX    TMP DP  RH WIND       PRES   REMARKS
MOLINE         CLOUDY    71  61  70 N6        29.76R
STERLING*      CLOUDY    69  65  86 NW10      29.76R
SAVANNA*       PTSUNNY   69  62  79 NW6       29.77R
$$

ILZ003-004-008-010-011-017-018-231500-
NORTH CENTRAL ILLINOIS

CITY           SKY/WX    TMP DP  RH WIND       PRES   REMARKS
ROCKFORD       CLOUDY    70  62  76 N9        29.75R
FREEPORT*      CLOUDY    67  62  84 NW5       29.77R
ROCHELLE*      CLOUDY    68  63  85 N6        29.74R
DE KALB*       CLOUDY    67  64  88 NW5       29.74R
PERU*          CLOUDY    68  63  85 N12       29.72F
$$

ILZ005-006-012>014-019>023-231500-
NORTHEAST ILLINOIS

CITY           SKY/WX    TMP DP  RH WIND       PRES   REMARKS
CHICAGO-OHARE  CLOUDY    69  62  78 N6        29.70S
CHICAGO-MIDWAY CLOUDY    69  65  86 N6        29.70S
AURORA         CLOUDY    69  65  86 N8        29.72R
LANSING*       CLOUDY    69  65  88 W3        29.70S
JOLIET*        DRIZZLE   71  68  92 N5        29.71S
WAUKEGAN       PTSUNNY   68  65  90 CALM      29.70R
DUPAGE AIRPORT CLOUDY    69  66  90 NE9       29.70S
WHEELING       PTSUNNY   69  65  86 N5        29.72S
MORRIS*        CLOUDY    69  66  92 N3        29.70S
ROMEOVILLE*    RAIN      68  64  89 N8        29.71S
NORTHERLY ISL    N/A     65  62  90 N2          N/A
$$

LMZ740>746-231500-
SOUTHERN LAKE MICHIGAN

STATION/POSITION SKY/WX   TEMP    WIND        PRES    VSBY  WAVE
                          AIR SEA DIR/SP/G                  HT/PER
                          (F)     (DEG/KT/KT) (MB)    (MI)  (FT/S)
SOUTHERN BUOY              62 61  350/  8/ 10 1004.2          1/ 4
WILMETTE HARBOR            64 64  280/  4/  6   N/A           1/ 3
HARRISON CRIB              65     340/  7/  7   N/A
BURNHAM HARBOR             66                   N/A
CALUMET HARBOR             64     340/  8/ 14 1005.5R
BURNS HARBOR               66     300/  8/ 11 1006.4R
MICHIGAN CITY              66     250/ 19/ 25   N/A
MICHIGAN CITY 6N           65 67  330/ 16/ 19   N/A           1/ 2
ST. JOSEPH                 65 68  360/ 12/ 14 1005.6          2/ 3
$$

ILZ025>027-034>036-040-047-049-050-058-095>099-231500-
WEST-CENTRAL ILLINOIS

CITY           SKY/WX    TMP DP  RH WIND       PRES   REMARKS
QUINCY         CLOUDY    72  69  90 N13       29.72R
GALESBURG*     PTSUNNY   69  65  84 N15       29.75R
MACOMB*        CLOUDY    70  67  91 N12G18    29.75R
JACKSONVILLE*  MOSUNNY   77  70  78 N16G22    29.65F
PITTSFIELD*    CLOUDY    74  72  93 N14       29.70R
$$

ILZ028>032-037-038-041>044-048-051>054-059>061-231500-
CENTRAL ILLINOIS

CITY           SKY/WX    TMP DP  RH WIND       PRES   REMARKS
PONTIAC        CLOUDY    70  69  98 N5        29.71F
BLOOMINGTON    CLOUDY    71  68  90 N18       29.70F
DECATUR        LGT RAIN  74  72  93 SW6       29.69F
PEORIA         LGT RAIN  70  68  93 NE8       29.71S
LACON*         CLOUDY    69  68  96 N5        29.70F
LINCOLN*       MOSUNNY   78  72  80 N6        29.67R HX  81
SPRINGFIELD    PTSUNNY   79  75  87 CALM      29.67F HX  83
TAYLORVILLE    CLOUDY    76  74  93 SW3       29.70F
$$

ILZ033-039-045-046-055>057-062-063-231500-
EAST-CENTRAL ILLINOIS

CITY           SKY/WX    TMP DP  RH WIND       PRES   REMARKS
CHAMPAIGN      PTSUNNY   77  71  82 W13       29.69F
RANTOUL*       LGT RAIN  70  69  96 NE5       29.71F
MATTOON        HVY RAIN  76  75  97 SW10      29.70F VSB 3/4
PARIS*         CLOUDY    77  74  92 SW12G18   29.70F
$$

ILZ079-100>102-231500-
SOUTHWEST ILLINOIS

CITY           SKY/WX    TMP DP  RH WIND       PRES   REMARKS
ALTON          PTSUNNY   77  73  88 SW6       29.68F
BELLEVILLE     MOSUNNY   79  75  88 S9        29.70F HX  83
CAHOKIA*       MOSUNNY   79  73  82 S5        29.67F HX  82
SPARTA*        CLOUDY    74  74  98 S3        29.73S
$$

ILZ064>066-069>071-074>076-080>082-084>086-088>090-092>094-231500-
SOUTH-CENTRAL ILLINOIS

CITY           SKY/WX    TMP DP  RH WIND       PRES   REMARKS
CARBONDALE     LGT RAIN  76  76 100 SW6       29.73R
CAIRO*         LGT RAIN  74  73  97 S6        29.72S
EFFINGHAM*     CLOUDY    78  76  92 S7        29.73S HX  81
MARION         RAIN      75  75 100 SW5       29.74S
MT. VERNON     LGT RAIN  73  72  96 SW7       29.73F
CENTRALIA*     CLOUDY    77  75  95 S8        29.71F
SALEM*         CLOUDY    78  74  89 S6        29.71F HX  80
METROPOLIS*    RAIN      74  73  95 S8        29.73S
$$

ILZ067-068-072-073-078-083-087-091-231500-
SOUTHEAST ILLINOIS

CITY           SKY/WX    TMP DP  RH WIND       PRES   REMARKS
LAWRENCEVILLE  HVY RAIN  74  74 100 S16       29.74S VSB 1/4
FLORA*         CLOUDY   N/A N/A N/A S5        29.72F
FAIRFIELD*     RAIN      73  73 100 S8        29.72S
HARRISBURG*    HVY RAIN  74  74  99 SW3       29.74R
ROBINSON*      CLOUDY    76  74  93 S7        29.73F
CARMI*         HVY RAIN  74  74 100 SE5       29.73F VSB 1
$$

ABBREVIATIONS USED IN REMARKS
   TC - TEMPERATURE IN CELSIUS
  WCI - WIND CHILL INDEX
   HX - HEAT INDEX
  VSB - VISIBILITY
$$





USA.gov is the U.S. government's official web portal to all federal, state and local government web resources and services.